Location: Kershaw
(34.5481°N, 80.5823°W)
Time: 21:13:47
(UTC+00:00)

Vanguard 2 Rocket - Pass Details

Date: 03 October 2022
Orbit: 555 x 3321 km, 32.9° (Epoch: 28 November)

Event Time Altitude Azimuth Distance (km) Brightness Sun altitude
Rises 03:43:57 0° 241° (WSW) 7,009 11.5 -53.3°
Reaches altitude 10° 03:49:10 10° 239° (WSW) 5,714 10.9 -53.9°
Enters shadow 03:53:22 20° 236° (SW) 4,626 10.4 -54.4°
